Theta_e
312 313 312 311 309 308 308 308 308 307 305 305 305 305 304 304 306 307 308 309 310 313 315 314 313 313 315 315 316 316 315 314 313 313 312 310 308 307 308 310 311 311 311 311 312 314 315 316 315 313 315 316 315 317 317 317 317 318 320 319 316 317 317 317 317 316 315 316 316 314 312 312 313 311 310 309 309 310 311 312 311 311 311 311 312 313 312 310
312 313 313 311 309 309 309 309 309 309 307 305 305 305 304 304 306 306 307 308 309 312 314 314 313 314 315 315 316 316 315 314 314 314 312 309 307 308 310 310 311 311 311 311 311 313 315 315 314 314 316 317 315 316 317 317 317 318 320 318 316 318 316 315 316 314 315 315 314 315 313 311 312 311 310 310 313 312 312 314 313 313 312 313 313 312 311 310
313 313 313 311 310 310 310 310 310 310 309 307 305 305 305 305 305 306 306 307 308 310 313 313 313 315 316 315 316 317 316 316 315 314 312 310 309 309 310 311 311 310 311 311 311 312 313 313 313 314 316 317 315 315 317 317 317 317 317 319 318 318 316 313 314 314 313 313 313 314 312 310 311 310 309 310 312 313 314 314 313 313 312 312 312 311 311 310
313 313 313 311 310 310 311 311 311 310 310 308 306 305 305 305 305 306 306 306 308 309 311 312 314 316 316 316 317 316 317 318 316 313 313 311 310 310 311 313 312 310 310 311 311 312 313 313 313 315 316 318 315 315 316 315 316 315 316 318 317 314 315 314 313 313 312 311 312 312 312 311 310 308 309 310 312 314 313 313 312 311 310 310 310 310 310 311
313 313 312 311 310 311 311 311 311 311 310 309 307 306 305 305 306 306 306 306 307 309 311 313 315 316 316 316 317 316 317 317 315 313 313 313 311 311 312 314 314 311 310 311 311 311 313 313 315 316 316 317 317 317 315 312 312 314 316 317 315 313 314 314 312 313 311 310 311 311 312 311 310 309 309 310 312 313 313 312 310 310 310 309 309 309 310 311
313 313 312 311 311 311 311 311 311 311 311 310 308 306 306 306 307 307 307 307 307 309 311 313 316 316 315 315 316 317 318 316 314 313 314 314 312 312 313 314 313 311 311 312 312 312 314 314 316 317 316 316 316 316 315 311 310 314 316 314 313 313 313 313 311 312 311 309 311 311 310 309 310 311 310 309 311 312 312 310 309 309 310 309 309 309 309 308
314 313 312 311 311 310 311 312 312 312 311 310 308 307 307 306 307 307 308 307 307 309 311 313 316 316 315 315 316 317 318 315 313 313 314 315 314 313 314 314 313 312 312 313 313 313 313 314 316 315 315 317 314 314 313 310 310 313 316 313 312 312 311 312 310 310 309 309 310 310 309 309 311 311 308 309 311 311 310 309 309 310 310 310 309 308 307 306
314 312 311 311 311 310 311 312 312 312 311 310 309 308 307 307 308 307 308 308 308 310 311 314 315 316 316 316 318 318 317 315 312 312 314 315 315 315 315 314 313 313 312 313 312 313 313 314 315 313 315 317 313 313 312 311 311 313 315 313 311 311 310 310 309 309 308 308 309 308 310 311 310 309 308 310 310 309 309 309 309 309 309 309 307 306 305 305
313 313 311 311 311 310 311 312 312 312 312 311 310 309 308 308 308 308 309 309 310 310 312 314 315 316 316 317 321 319 315 314 312 312 315 315 315 315 314 314 314 313 313 313 312 313 314 314 314 312 315 314 312 313 311 312 314 312 313 312 311 311 310 309 309 309 308 308 308 309 312 311 308 308 310 310 309 309 310 309 308 308 307 306 305 304 304 303
313 312 311 310 310 310 311 312 312 312 312 311 310 310 309 308 309 308 310 312 311 311 312 315 315 315 315 317 321 318 314 313 312 314 315 315 315 314 314 313 313 313 313 313 313 313 313 314 313 312 314 313 310 311 311 312 312 310 310 311 310 311 310 309 309 309 308 308 308 310 312 310 308 309 311 310 309 310 310 309 307 307 306 304 303 303 303 303
313 312 311 311 311 310 311 312 312 312 312 311 310 311 310 308 309 308 311 313 311 312 314 315 315 315 316 316 318 316 313 313 314 314 314 315 315 314 313 312 312 312 312 313 313 311 311 312 311 311 313 312 310 311 310 309 309 308 308 310 310 311 310 309 310 309 310 309 307 309 311 310 309 310 312 310 309 310 310 308 306 305 304 303 302 302 302 302
313 312 311 310 311 311 311 312 312 312 311 311 310 311 310 308 310 309 312 313 311 314 315 315 315 315 316 316 315 315 313 313 314 314 313 314 314 313 312 311 312 312 312 313 313 311 310 310 310 311 313 311 311 312 309 307 307 307 307 310 312 312 311 310 310 310 311 309 306 308 310 311 311 311 311 310 310 309 309 307 305 304 303 302 302 301 301 302
313 312 310 310 311 310 312 312 312 312 311 311 310 311 311 309 310 310 311 313 313 316 315 315 315 314 316 315 314 313 312 313 314 312 312 314 314 313 312 311 312 311 312 313 312 310 310 309 309 311 311 311 312 311 307 306 307 308 307 310 313 312 312 311 310 311 311 308 306 308 310 311 312 311 310 310 309 308 308 306 304 303 302 301 301 301 301 301
313 311 310 310 310 310 312 312 312 311 311 310 310 311 312 310 311 311 311 312 314 317 316 314 315 315 316 314 313 312 312 313 313 311 312 312 313 313 311 310 311 311 311 312 310 309 309 308 309 310 309 309 310 308 308 308 308 310 309 310 314 311 311 313 310 310 311 308 308 311 310 311 311 311 311 310 309 308 306 304 302 301 301 300 300 300 300 300
312 310 310 310 310 311 311 312 312 310 311 311 309 311 312 310 311 311 311 313 315 317 315 314 315 315 316 314 313 313 313 314 313 311 311 311 312 313 311 309 310 310 311 310 309 308 308 308 309 310 309 307 307 309 312 312 310 312 310 312 315 312 311 314 310 309 310 309 309 311 310 311 311 311 311 310 308 307 304 302 301 300 300 300 299 299 299 299
311 310 309 309 309 310 310 311 310 309 310 310 310 313 312 310 311 312 312 313 315 316 314 315 315 315 317 314 313 314 314 314 313 311 311 310 310 312 311 309 309 309 310 309 308 308 308 309 308 308 309 308 310 312 313 312 312 313 312 312 315 313 312 313 310 308 309 310 310 310 310 311 311 311 311 309 307 305 302 301 300 299 299 299 299 299 299 298
311 310 309 309 308 309 309 309 308 308 310 310 311 313 311 310 312 312 312 313 316 317 314 315 315 315 316 314 313 315 314 313 312 310 310 310 309 310 310 310 309 309 310 309 308 309 309 310 308 308 310 310 311 313 312 310 312 314 313 313 314 313 312 312 311 309 309 310 310 310 311 311 311 310 310 308 305 303 302 300 299 299 299 298 298 298 298 298
310 309 309 308 307 307 307 307 307 307 309 310 311 311 310 311 314 314 313 313 317 319 316 315 316 316 316 314 314 315 313 312 312 310 309 309 309 309 309 309 308 308 310 311 309 310 311 311 311 312 312 311 311 313 312 312 313 313 313 313 313 312 311 312 312 310 309 309 310 310 310 310 310 309 309 307 304 302 301 300 299 299 298 298 298 298 298 297
310 310 310 308 307 306 306 306 305 305 309 309 310 311 309 311 315 313 312 313 315 319 319 316 315 317 317 316 315 314 312 311 312 310 309 308 308 308 307 308 310 311 312 313 312 311 310 311 311 312 313 311 310 311 312 312 312 311 312 311 312 312 312 311 311 310 308 309 309 309 309 309 309 308 308 305 303 302 300 299 299 298 298 298 298 297 297 297
310 310 310 309 307 305 304 304 304 305 307 307 308 310 309 312 317 315 313 312 312 314 318 316 313 315 317 316 314 312 311 311 311 309 308 307 307 308 307 308 313 315 312 312 313 310 309 310 310 312 311 310 310 309 309 309 308 309 311 311 312 312 312 311 310 310 308 307 308 308 308 308 308 307 307 304 302 301 300 299 298 298 298 297 297 297 296 296
310 310 310 310 307 305 304 303 304 305 306 305 305 308 309 311 314 312 310 312 312 309 314 314 311 313 314 314 312 310 310 311 310 309 308 307 307 309 308 309 312 311 311 310 311 310 308 307 310 312 310 307 307 307 306 307 308 309 310 311 312 312 312 311 310 309 308 307 307 307 307 307 307 307 306 304 302 300 299 298 297 297 297 297 297 296 296 296
311 310 310 309 307 305 302 302 304 305 306 303 308 313 312 310 310 308 308 314 314 308 311 312 311 314 313 311 311 309 310 311 311 310 309 307 309 310 309 310 310 309 311 310 310 310 308 307 310 309 307 305 305 305 305 307 309 310 311 312 312 311 311 310 310 309 307 306 306 306 307 306 306 307 304 303 301 300 299 298 297 297 296 296 296 295 295 295
311 310 310 309 306 304 302 302 304 305 306 303 308 311 312 311 310 309 310 315 315 312 313 314 315 318 315 312 310 309 310 311 310 310 308 307 310 311 310 309 309 311 310 309 308 307 305 306 307 306 305 305 306 306 306 308 310 311 311 311 311 311 310 310 309 308 306 306 306 307 306 305 306 307 304 303 302 301 300 298 297 297 296 296 295 295 295 294
311 309 309 308 305 302 301 303 305 306 305 304 306 309 311 311 311 311 312 315 318 315 313 312 313 318 316 311 308 309 310 310 308 307 307 307 308 308 310 308 308 311 310 308 308 306 305 306 305 305 306 307 308 309 310 310 309 312 311 310 310 310 309 308 307 306 305 306 306 305 304 303 305 306 305 304 302 301 299 297 297 296 296 295 295 295 294 294
311 309 309 307 303 301 301 304 307 304 304 306 305 305 308 310 310 310 311 314 318 316 313 312 313 316 312 309 309 308 309 309 308 307 305 306 307 307 308 306 306 309 309 307 307 306 307 305 304 308 309 309 310 309 311 310 308 310 310 308 308 308 308 307 306 305 304 305 306 303 301 302 303 304 306 304 300 299 298 296 296 295 295 295 295 295 294 295
311 309 307 305 302 301 301 307 307 302 306 310 305 302 306 309 309 308 310 315 319 316 315 314 314 314 310 309 310 308 310 310 306 305 304 305 306 305 306 305 304 306 308 307 306 305 306 304 305 310 310 310 310 309 310 309 308 309 309 306 307 308 307 306 306 305 303 303 306 304 301 301 302 305 306 303 299 298 297 296 295 295 295 295 295 294 294 294
311 309 306 303 301 300 302 307 305 302 308 311 305 302 305 309 309 308 311 319 320 315 316 315 313 313 311 309 307 309 314 310 305 304 303 304 304 304 305 305 304 305 305 305 305 306 306 306 307 309 309 308 308 308 309 307 308 309 307 306 306 306 305 305 306 305 303 303 305 305 303 301 303 306 306 302 299 297 296 295 295 295 295 295 295 294 294 294
311 308 305 301 299 299 301 304 303 303 305 306 302 302 307 310 309 310 316 323 320 315 315 313 311 311 311 308 306 309 311 308 309 307 302 302 304 303 304 305 304 305 304 304 304 307 307 308 308 307 307 307 307 308 306 306 308 308 305 304 305 305 304 305 305 303 303 303 302 303 305 304 305 305 303 301 299 297 295 295 295 295 295 295 294 294 294 294
311 308 304 300 298 300 302 301 302 302 302 302 302 305 309 308 309 313 318 321 319 315 312 312 312 311 311 309 308 309 308 307 310 307 302 302 303 303 304 304 304 304 303 303 306 308 306 304 305 305 306 307 306 304 304 305 305 303 303 304 305 305 305 305 305 302 303 302 301 302 304 303 302 301 300 300 298 296 295 295 295 295 295 294 294 294 294 294
312 308 304 299 298 301 302 302 302 301 300 301 305 307 307 308 312 317 322 321 319 315 310 312 314 311 311 312 311 310 309 309 307 304 303 303 304 303 301 301 304 305 304 303 305 306 303 302 304 305 305 305 304 302 302 303 301 300 302 304 304 303 303 302 302 302 302 302 302 301 300 298 296 298 300 298 296 295 294 294 294 294 294 294 294 294 293 293
312 308 304 299 298 300 301 304 303 300 299 303 307 306 307 313 316 321 325 319 317 316 313 314 315 312 312 314 314 312 310 309 306 305 305 304 304 305 302 303 305 305 305 305 306 306 305 305 306 305 304 303 304 304 303 303 302 301 302 301 301 301 300 300 300 301 300 302 303 300 297 295 295 297 298 296 294 294 294 294 294 294 294 293 293 293 293 293
312 307 304 299 298 299 300 303 302 301 301 304 306 307 311 318 319 321 323 318 318 319 316 315 315 315 313 311 313 313 310 309 305 304 305 304 304 304 304 305 305 305 307 307 307 308 307 306 304 304 304 303 305 307 305 304 302 301 301 300 300 299 298 299 299 299 299 301 302 298 296 295 295 297 297 295 294 294 294 294 294 294 293 293 293 293 293 293
312 307 303 300 299 300 300 301 301 302 304 305 307 310 314 319 320 321 322 320 319 317 315 315 313 313 312 311 313 312 308 308 306 303 303 303 304 303 302 302 303 305 306 306 307 307 307 306 303 305 305 302 304 306 305 303 299 300 301 299 298 297 296 297 298 298 298 299 297 295 295 295 296 299 298 295 294 294 293 294 294 294 293 292 292 292 292 292
312 307 304 302 301 300 300 300 302 304 305 305 309 312 317 319 320 320 320 321 318 312 312 313 311 311 312 312 311 308 308 309 305 303 303 302 303 304 303 302 302 304 303 305 307 306 307 307 304 305 305 303 302 301 301 301 298 299 301 299 297 296 295 296 297 296 296 297 296 296 296 296 297 299 297 295 294 294 294 294 294 293 293 293 292 292 292 292
312 306 305 304 301 301 302 302 303 305 305 307 308 312 318 320 319 317 318 319 316 312 311 310 311 312 312 311 308 305 307 308 304 303 304 303 304 305 305 304 303 304 304 305 306 304 305 306 304 302 301 300 299 299 300 299 298 298 299 299 298 298 297 297 297 297 295 295 297 297 297 297 297 297 296 294 294 294 294 294 293 292 292 292 292 291 291 291
310 306 306 304 302 303 304 303 306 307 307 307 308 311 315 317 318 318 317 314 314 315 314 311 313 313 312 311 307 305 305 304 303 303 303 303 304 305 305 304 302 303 306 306 306 304 304 305 303 300 299 297 296 298 299 299 298 298 297 298 298 297 297 295 295 297 295 294 297 297 297 297 297 296 294 294 294 293 293 293 292 292 292 291 291 291 291 291
306 304 305 302 302 304 304 305 309 308 309 307 307 310 314 315 314 317 318 313 311 313 313 313 313 313 314 313 309 306 305 303 303 303 303 304 304 304 303 302 300 301 302 303 304 304 303 304 305 302 300 298 295 296 298 298 299 297 296 296 295 294 294 293 293 294 295 294 296 296 296 295 295 296 295 294 293 293 293 292 292 292 291 291 291 291 291 291
304 304 304 302 303 304 303 306 308 309 311 309 306 309 314 313 309 312 315 314 313 312 311 313 313 313 313 313 310 307 304 305 305 303 304 304 304 304 303 301 300 298 298 298 301 302 302 302 304 302 300 297 296 297 296 297 297 296 296 296 294 292 293 293 292 292 293 293 294 295 295 294 295 295 294 293 293 292 292 291 291 291 290 290 291 291 291 291
303 304 306 306 306 305 306 307 308 311 312 307 304 307 312 311 309 311 313 313 314 313 311 311 313 313 311 309 310 307 304 305 305 304 305 305 305 304 302 302 300 297 296 297 301 302 301 300 300 300 298 297 297 297 296 296 296 295 295 295 294 292 292 292 293 292 292 292 293 294 294 295 295 294 293 293 292 292 291 291 291 291 290 290 290 290 291 291
303 304 307 308 306 306 308 308 310 313 311 306 305 308 312 312 310 311 311 311 312 312 311 312 312 312 311 309 308 307 305 304 303 304 305 305 305 304 301 300 299 297 295 296 298 300 299 299 300 299 297 296 296 296 296 296 295 294 294 294 294 293 292 292 292 292 292 292 293 293 294 295 295 294 293 293 292 291 291 291 290 290 290 290 290 291 290 291
304 306 307 306 305 307 309 310 312 314 313 311 310 310 312 313 313 314 311 310 311 311 310 312 312 311 311 310 308 306 305 304 303 304 304 304 305 304 300 298 298 297 296 296 296 298 298 299 300 298 296 296 296 295 295 295 295 294 294 294 294 293 292 292 292 293 292 292 293 292 293 294 294 293 293 292 292 292 291 291 290 290 290 290 290 291 290 291
307 312 310 305 306 309 310 311 314 316 316 313 310 311 313 313 314 316 313 308 310 310 308 308 310 311 310 309 309 306 305 305 304 304 304 304 304 303 298 297 296 296 296 297 297 297 297 297 298 298 297 295 294 293 293 295 295 295 294 294 294 293 293 292 292 292 292 292 293 292 293 294 294 293 293 292 292 292 291 291 290 290 290 290 290 290 291 291
308 312 309 305 307 310 310 310 312 315 316 312 310 312 313 312 314 315 312 309 309 310 309 308 308 309 309 309 308 306 305 306 306 305 304 303 302 298 295 295 296 295 296 295 295 296 296 295 295 297 296 292 290 291 293 293 294 294 294 294 293 294 294 293 292 292 293 293 293 293 294 295 294 293 293 293 292 291 291 290 290 290 290 290 290 290 291 291
308 308 307 306 308 309 310 311 312 313 313 311 310 311 310 311 312 312 311 311 310 310 310 310 309 308 307 307 306 306 305 306 307 306 304 302 299 294 292 294 295 294 295 295 295 296 296 295 295 295 295 292 291 292 292 292 292 293 293 294 294 293 293 293 293 294 294 294 294 294 294 295 294 294 294 292 292 291 290 290 290 290 290 290 290 290 291 291
310 311 308 306 308 309 309 310 312 313 313 311 311 312 310 310 310 311 311 311 310 310 310 309 308 307 305 304 305 305 305 306 306 305 303 300 296 293 292 293 294 294 295 296 297 297 296 295 295 295 294 294 293 294 294 293 292 293 293 293 293 293 293 293 293 293 294 295 294 294 294 294 294 294 293 292 291 290 290 290 290 290 290 290 290 290 290 290
313 315 310 305 307 309 309 308 310 311 312 312 312 312 312 311 310 310 310 310 310 309 309 307 305 304 304 303 304 304 303 304 303 303 302 299 296 294 294 294 293 293 295 297 298 297 296 295 295 294 294 294 293 293 293 292 292 292 293 293 293 293 293 293 293 293 294 293 293 294 293 293 293 292 292 291 291 290 290 290 290 290 290 290 290 290 290 289
313 314 310 307 308 310 309 309 308 308 309 311 312 312 312 312 311 309 308 309 309 308 308 306 303 304 304 303 304 304 303 303 302 301 301 299 296 294 293 293 293 293 295 297 296 296 296 294 294 295 294 293 293 293 292 292 292 292 292 292 293 293 294 294 293 293 293 293 293 293 293 293 293 292 291 291 290 290 290 289 289 290 290 290 290 289 289 289
312 313 310 310 313 314 310 309 308 307 308 308 309 311 311 310 311 310 308 307 306 306 307 306 304 304 305 304 304 304 303 302 302 301 301 299 296 295 294 292 292 294 296 295 294 294 294 294 294 294 294 294 293 293 293 292 292 292 292 292 292 293 294 294 293 292 292 292 292 292 292 292 292 291 291 290 290 290 290 289 290 290 290 290 289 288 288 288
311 311 309 309 314 315 312 310 308 307 308 308 307 309 309 309 310 310 309 307 305 304 306 308 306 303 304 304 303 303 303 303 304 302 300 299 297 296 296 294 293 295 295 293 293 293 293 293 293 293 293 293 292 293 293 292 292 292 292 292 292 292 293 293 292 292 292 292 292 292 292 292 291 291 291 290 290 290 290 290 290 290 290 289 288 288 288 287
312 311 310 307 309 311 311 310 309 308 308 308 308 308 308 308 309 309 309 308 307 305 304 307 307 304 303 303 303 303 304 304 305 303 300 299 298 296 296 296 294 295 294 292 293 293 292 293 293 293 294 294 293 293 293 293 293 292 292 292 291 291 291 292 292 292 292 292 291 291 291 291 291 291 291 290 290 290 290 290 290 289 289 288 287 287 287 286
312 310 309 310 310 309 309 310 310 310 309 309 309 309 309 309 309 309 309 308 308 308 304 305 307 305 302 302 303 303 304 304 304 302 300 299 299 298 297 296 296 295 294 293 293 293 292 293 293 293 293 293 293 292 292 292 292 291 291 291 291 291 291 291 291 291 291 291 290 290 290 291 291 291 290 290 290 290 290 290 289 288 288 287 287 287 285 284
310 307 307 311 315 313 310 310 310 310 312 311 310 310 310 310 309 309 310 308 308 308 306 305 306 304 302 303 303 303 302 301 299 298 297 296 297 297 296 296 296 296 295 294 293 293 294 293 292 292 292 292 292 291 290 291 291 291 292 292 292 292 291 291 290 290 290 290 290 290 290 290 290 290 290 290 290 290 290 289 288 287 287 287 287 286 284 282
Wind_Speed
18 20 22 24 25 26 27 28 28 28 30 31 32 33 33 32 32 32 30 28 24 19 17 17 16 12 8 5 2 3 9 17 21 23 18 11 14 15 15 16 15 15 15 13 12 10 2 2 7 4 0 0 2 1 1 2 1 2 2 1 0 1 1 2 1 3 4 8 10 6 2 6 8 4 4 5 6 7 8 8 6 7 8 12 15 16 18 21
18 21 22 24 25 26 26 27 27 28 29 30 31 33 34 33 33 32 31 29 26 22 20 20 18 12 8 5 1 5 5 10 18 19 16 14 15 15 16 16 15 15 14 12 11 10 6 5 7 5 2 0 1 0 1 1 1 2 1 2 1 2 2 1 2 3 4 9 14 13 4 3 7 6 5 7 10 8 8 8 7 9 11 11 10 8 12 16
19 21 22 24 25 25 26 26 27 27 28 29 31 32 33 33 33 33 31 30 28 24 23 23 19 13 9 3 3 6 7 3 10 11 14 17 14 14 15 14 14 13 11 10 8 8 5 4 4 5 3 1 1 0 1 1 1 1 1 2 3 2 1 1 1 1 2 7 13 14 6 5 5 3 3 7 13 10 8 12 13 15 19 20 17 13 14 16
18 21 22 24 24 24 25 25 26 27 27 29 30 31 32 33 34 33 31 31 28 25 26 24 19 13 7 3 4 7 8 3 5 7 14 16 14 14 13 13 13 11 9 8 6 6 5 3 3 4 2 2 1 2 2 2 1 1 1 2 5 2 1 3 1 1 0 3 10 13 9 8 4 2 3 6 9 8 11 14 15 16 16 18 18 18 19 18
18 20 22 23 23 23 24 25 26 26 27 28 30 31 32 33 34 33 31 31 27 25 27 24 17 11 6 2 4 8 7 2 4 9 14 14 13 12 11 11 12 10 9 7 5 5 4 3 3 2 1 2 0 1 1 2 1 1 3 2 3 2 2 4 2 1 1 2 8 12 8 7 5 1 3 5 6 7 11 14 14 13 13 13 12 13 17 19
18 20 21 22 22 23 24 25 26 26 27 28 29 31 32 33 33 33 32 30 26 24 27 22 14 8 9 8 7 6 2 0 5 11 13 13 11 10 11 11 11 10 7 6 6 5 3 4 3 1 1 1 1 1 1 2 1 2 2 1 1 3 1 2 3 2 1 5 9 9 5 5 7 4 3 4 6 6 11 12 10 11 11 10 9 11 15 18
18 20 20 21 21 22 23 24 25 26 27 28 30 30 32 33 32 33 32 30 25 23 26 20 11 5 8 12 11 7 4 3 8 11 12 14 11 10 11 10 10 8 6 6 7 5 3 4 4 1 2 2 1 1 1 0 2 3 2 1 2 5 2 1 1 2 3 7 9 8 6 6 6 4 3 4 4 7 9 8 9 11 12 11 13 15 17 19
18 19 20 21 21 22 23 24 25 26 27 29 30 30 32 32 32 32 31 30 22 23 26 17 9 4 1 5 5 6 6 4 10 12 14 15 11 10 10 7 8 8 6 8 8 5 3 4 3 0 3 1 0 1 1 2 4 4 3 3 0 3 2 1 2 4 5 6 6 7 9 4 3 1 2 3 8 8 6 7 9 11 12 14 16 17 18 19
18 19 20 21 21 22 23 24 24 26 28 29 29 30 32 31 31 32 31 29 22 24 26 14 9 5 0 2 1 3 4 6 11 13 16 14 10 10 8 8 9 8 6 7 7 5 3 2 2 1 3 2 0 2 1 3 2 2 4 5 6 4 1 2 3 4 4 2 2 7 12 4 4 3 3 8 10 9 9 10 11 11 13 15 15 17 18 18
17 19 20 21 22 23 23 24 24 26 28 29 29 29 32 31 30 31 30 27 23 25 22 11 9 6 1 1 0 3 3 6 9 13 15 12 9 7 8 10 9 8 5 5 6 5 3 2 1 1 3 1 1 1 1 2 1 1 7 8 10 7 3 3 4 5 4 2 2 8 14 6 1 3 4 9 9 12 12 13 13 13 15 16 16 16 17 18
17 19 20 21 22 23 23 24 24 26 28 29 29 29 30 30 29 30 27 25 25 24 17 9 11 14 11 5 4 5 2 5 9 14 16 11 8 7 10 11 9 7 4 3 4 4 3 1 1 0 1 0 1 2 2 1 2 3 7 10 11 5 3 5 5 4 5 3 2 8 13 6 2 2 7 10 10 13 13 13 14 14 14 15 16 15 15 17
17 18 20 21 22 23 23 24 24 25 28 29 29 28 28 27 28 28 24 24 26 19 12 8 8 12 13 10 7 4 1 6 11 14 15 10 8 8 11 10 8 6 2 1 2 1 3 0 3 2 2 1 2 2 1 1 3 2 3 7 11 3 7 7 5 3 4 4 4 6 8 3 1 5 10 10 10 13 10 14 13 13 13 14 14 13 13 16
17 18 20 21 22 24 23 24 25 26 28 29 28 27 27 25 26 27 22 23 25 14 10 8 4 2 4 5 4 1 1 6 12 14 13 11 8 6 10 10 7 5 2 1 1 1 2 1 2 2 1 2 3 2 1 1 1 1 1 2 7 6 4 7 6 1 4 7 6 4 5 2 3 6 8 5 7 11 11 14 12 11 12 12 12 12 12 16
17 18 20 21 22 23 23 25 25 26 29 28 28 26 26 24 24 25 19 22 24 11 9 9 5 4 4 3 2 1 2 5 10 14 13 12 7 3 8 9 6 4 2 0 1 2 2 1 2 1 1 1 3 1 4 2 1 2 0 2 1 4 4 3 6 3 4 7 2 6 4 4 8 5 7 4 6 10 14 14 12 11 11 11 11 12 12 15
17 19 20 21 23 23 24 25 25 27 28 28 28 26 26 23 23 24 17 23 25 10 6 7 6 4 4 3 3 1 3 4 9 14 13 12 8 2 7 7 3 3 1 1 2 3 4 2 2 0 0 1 3 4 4 2 2 1 2 2 2 2 8 7 5 7 6 2 2 6 3 5 9 6 8 9 9 16 16 13 12 12 12 12 11 12 12 14
17 19 20 21 23 23 24 25 26 28 27 29 27 25 26 20 23 22 13 24 24 7 6 5 3 1 3 3 2 1 3 3 8 11 10 12 8 5 8 5 2 2 1 2 2 3 4 2 1 2 2 1 3 4 4 2 1 1 3 4 5 5 9 8 3 7 8 6 3 3 3 6 8 7 11 9 14 19 15 13 12 11 12 12 10 11 11 13
17 18 20 22 23 23 24 25 27 28 28 28 26 27 22 16 23 19 10 24 20 5 6 6 3 1 1 1 1 2 2 3 6 9 9 10 8 5 6 3 2 3 1 1 1 0 3 2 1 1 0 1 3 4 5 4 3 3 4 4 6 6 8 9 2 4 7 7 3 1 0 6 9 10 11 8 17 17 14 12 11 11 11 11 10 11 13 14
17 18 20 21 23 24 24 25 27 28 28 26 27 26 17 15 21 12 9 25 15 1 4 5 3 1 1 1 0 2 5 5 4 7 9 8 6 3 4 3 1 1 2 2 2 4 4 1 1 2 1 2 5 5 4 4 5 6 6 6 7 6 7 11 8 4 8 8 7 3 2 6 11 11 9 13 18 16 14 11 10 11 11 11 12 12 13 15
17 18 19 21 24 24 24 26 27 28 28 26 27 24 14 15 13 3 10 22 8 1 3 3 3 2 1 2 2 6 7 4 2 6 10 8 5 1 2 4 1 1 1 2 3 5 4 2 0 2 2 5 6 4 3 4 6 8 7 7 8 9 8 11 11 5 9 12 8 5 6 8 12 11 9 16 16 15 13 11 10 10 11 11 12 12 14 15
17 18 19 21 23 23 24 25 26 27 27 27 28 19 9 11 6 1 11 13 3 2 4 1 1 3 2 2 4 9 5 1 1 5 11 9 4 3 1 2 2 1 3 2 4 3 2 4 2 2 4 7 6 3 4 5 4 6 7 6 8 10 8 9 11 5 9 12 8 8 11 9 12 10 11 15 14 14 12 12 11 10 10 10 12 13 15 15
17 18 19 21 22 23 23 23 25 25 22 24 24 13 4 5 5 3 8 6 2 2 3 2 2 5 5 3 6 9 3 0 1 5 11 9 3 2 1 2 1 3 3 1 4 1 2 4 2 1 3 4 4 3 4 4 4 4 5 7 8 8 8 10 9 5 9 10 9 14 14 8 11 7 13 14 13 13 11 12 11 11 11 10 12 14 15 14
16 18 19 20 22 22 21 22 23 20 19 22 19 11 4 3 1 1 3 5 2 1 2 2 3 4 4 3 5 7 3 1 2 4 11 10 4 2 3 3 2 3 3 1 3 2 3 2 2 2 2 1 1 0 3 4 5 5 4 6 7 6 9 8 3 5 10 8 11 15 12 9 8 7 14 12 12 12 10 11 10 11 12 12 13 14 14 15
16 17 19 19 21 21 20 20 19 16 17 19 15 9 3 3 1 2 2 4 5 2 1 1 2 2 2 2 3 4 3 2 2 4 11 10 3 3 2 2 2 1 1 1 2 2 4 2 3 2 2 2 0 1 2 5 4 3 4 6 6 7 9 5 2 9 12 8 9 13 10 8 1 10 12 10 11 10 8 10 10 11 12 12 12 11 13 15
16 17 18 19 20 19 19 18 14 12 15 14 13 9 3 2 2 1 2 2 4 2 1 1 2 1 1 2 2 3 1 2 2 4 11 9 2 2 2 2 1 2 1 1 2 2 6 3 3 3 3 1 3 1 1 4 5 2 1 3 6 7 8 8 10 15 13 6 4 10 11 3 4 4 6 8 8 8 7 9 12 12 11 11 11 11 13 14
16 18 18 19 18 17 17 14 9 11 12 8 8 7 3 1 2 3 1 2 2 1 1 2 1 1 2 1 2 3 1 1 1 3 8 7 2 2 1 0 2 1 2 2 1 4 4 2 1 1 3 1 3 4 1 2 6 4 2 1 5 7 8 11 13 14 11 6 5 10 11 2 2 1 6 7 5 7 7 10 12 12 11 11 11 12 13 14
17 17 18 18 17 15 12 7 6 11 9 4 5 5 1 1 3 5 1 1 1 0 1 2 1 1 2 1 2 1 2 2 1 3 4 4 2 0 1 1 1 1 1 1 2 3 0 2 1 1 2 1 3 4 1 1 5 4 1 1 5 6 9 12 13 10 9 9 4 7 8 8 6 2 9 8 5 7 7 10 11 11 11 11 11 12 14 16
17 17 18 17 16 14 7 1 4 9 4 1 5 4 1 0 5 7 1 1 2 1 1 0 1 1 1 1 1 1 2 1 1 1 2 4 2 1 2 1 1 1 1 1 2 1 2 1 1 3 2 2 4 4 0 1 4 2 2 3 5 7 11 13 12 8 8 10 6 1 6 9 8 2 9 8 5 5 9 12 13 13 13 14 13 14 17 18
16 17 17 16 14 11 4 1 4 4 2 4 5 2 1 3 7 5 2 2 1 2 1 1 1 1 1 1 2 0 3 3 2 0 2 4 3 2 3 2 3 2 2 3 4 0 1 1 1 2 2 2 3 2 1 1 2 2 3 3 5 6 10 10 10 10 7 7 7 4 5 7 6 3 3 4 3 6 11 13 14 14 14 15 15 17 19 19
16 16 16 15 12 8 4 3 2 2 1 4 3 1 4 7 5 1 1 1 1 2 1 0 1 1 2 1 2 1 1 0 1 2 1 2 5 2 1 0 1 3 3 3 4 0 1 1 1 1 2 2 1 2 2 2 1 3 4 4 5 6 8 8 7 8 6 5 8 5 2 5 6 5 4 1 3 5 9 10 12 12 13 15 17 19 20 19
16 15 15 14 9 5 4 3 1 2 2 3 2 3 6 5 2 1 1 2 0 1 1 1 1 2 4 2 2 0 1 1 1 2 1 1 4 5 1 1 0 3 2 1 2 1 1 1 1 1 1 0 3 3 2 3 1 4 4 4 6 6 6 7 6 5 4 5 6 3 3 3 6 4 1 1 3 5 8 9 11 13 15 17 18 18 19 18
15 15 14 12 7 5 3 0 1 3 3 2 3 5 4 1 1 2 3 1 1 0 1 0 1 2 2 1 3 1 1 1 2 2 1 1 2 3 1 2 2 2 2 2 3 1 1 3 2 1 0 0 3 3 2 2 3 3 2 6 7 5 4 5 4 1 3 4 5 7 2 3 7 3 3 5 5 7 8 11 13 16 18 19 19 19 19 17
15 14 13 11 7 5 2 1 2 4 3 3 4 2 1 1 1 4 2 1 1 1 1 1 1 0 3 1 3 1 0 1 0 1 1 1 1 1 1 2 1 3 3 3 1 2 1 3 1 1 0 1 2 3 3 3 1 2 3 4 5 5 4 4 4 3 6 5 7 6 4 5 10 7 4 6 6 8 10 12 13 15 17 18 19 19 17 16
14 13 12 10 7 4 1 1 2 2 3 3 2 1 1 1 3 2 1 1 0 1 1 1 1 0 1 2 3 1 1 2 1 2 1 1 0 1 2 3 2 4 3 1 0 2 2 2 1 3 2 1 3 3 3 2 2 3 2 1 2 4 6 6 6 5 7 4 6 3 5 5 11 6 7 6 7 9 12 12 10 12 15 17 19 19 17 18
13 12 11 10 7 3 1 1 0 2 2 2 1 0 1 3 4 1 1 3 1 2 1 1 1 0 2 3 2 1 2 2 2 1 1 2 2 3 3 3 3 2 1 1 1 2 3 2 2 4 3 2 2 1 1 1 2 2 2 1 3 2 4 6 5 5 8 8 5 4 2 4 6 2 10 5 7 9 10 9 8 12 15 16 17 18 18 19
12 11 10 10 7 4 2 2 2 4 3 2 1 1 3 5 2 1 2 1 1 1 0 2 1 3 4 4 1 1 4 2 3 1 3 3 3 3 2 3 3 2 2 3 1 2 4 4 2 1 2 1 3 2 1 1 2 2 3 2 3 2 4 6 3 2 5 10 9 4 4 4 1 7 10 3 8 10 10 9 11 15 16 17 17 17 17 18
10 9 8 9 9 5 4 4 5 7 4 2 1 4 6 4 2 2 2 1 1 1 1 2 3 3 5 3 1 1 2 2 0 1 3 3 4 3 2 1 2 3 2 2 1 2 3 2 4 2 1 1 1 2 1 2 1 3 3 2 1 3 1 5 4 0 2 8 8 4 5 7 1 6 6 4 11 12 10 11 14 16 19 20 18 17 18 19
8 6 5 8 8 4 6 6 8 8 4 2 4 6 4 2 3 3 3 2 1 2 1 3 2 3 5 3 2 2 2 2 1 1 2 2 2 4 5 2 2 3 3 2 2 1 1 2 4 4 2 2 1 1 2 3 2 2 3 1 5 4 2 1 2 2 4 8 7 6 9 9 6 2 2 6 13 13 13 15 17 19 21 21 19 19 21 22
5 4 5 9 9 7 9 8 9 6 2 2 6 7 3 3 3 3 4 4 1 2 2 3 3 3 4 4 2 3 4 2 3 2 2 3 3 4 7 4 4 3 2 3 2 0 1 3 3 3 2 4 0 1 3 0 2 1 1 2 3 1 2 3 1 2 6 9 7 8 10 9 7 2 2 8 13 14 15 18 20 22 22 21 21 21 23 24
4 1 3 8 9 9 11 10 8 4 1 4 8 7 3 3 3 2 4 4 3 2 3 5 5 3 3 3 1 2 5 4 3 2 3 4 2 3 6 4 4 4 1 0 2 0 0 3 1 2 1 3 2 3 4 4 2 3 1 3 2 1 2 2 1 1 5 7 7 10 10 6 2 1 4 10 12 13 16 18 19 21 22 21 21 21 23 24
4 0 2 7 10 11 12 10 5 2 3 5 6 4 1 2 2 3 4 3 2 3 4 4 6 6 4 3 2 2 4 4 3 3 4 3 2 2 6 4 5 6 2 1 2 1 1 3 2 3 1 2 4 3 2 3 4 3 4 5 3 1 2 2 2 3 4 7 6 8 10 5 2 3 6 9 10 12 16 19 18 19 21 22 22 22 23 23
3 1 2 7 11 14 13 6 2 3 3 3 3 3 2 2 3 3 3 3 2 3 2 2 5 6 5 4 4 3 3 3 4 4 5 4 4 3 5 4 7 8 4 2 3 2 2 2 2 4 4 5 2 3 2 2 3 5 6 6 5 3 3 3 5 4 3 5 5 6 12 8 0 1 3 5 9 13 16 19 19 19 22 23 23 24 25 24
2 2 3 9 16 16 9 3 1 1 3 3 2 3 2 2 3 4 3 2 1 2 1 2 4 5 5 6 5 3 3 4 5 5 5 5 4 2 3 4 5 6 4 2 1 0 1 0 3 4 4 2 2 5 3 3 4 4 3 4 4 3 4 4 5 3 2 5 5 6 12 8 1 3 1 6 11 14 17 19 20 20 22 24 24 26 27 26
2 2 4 12 18 14 5 3 2 1 3 2 1 3 3 2 3 4 4 4 3 3 3 3 4 5 7 6 4 4 5 4 6 6 4 4 2 1 3 6 6 5 3 2 2 2 2 1 3 4 2 3 3 3 2 2 3 4 4 5 5 4 4 4 5 5 5 6 5 6 10 7 4 5 3 9 13 15 16 18 21 20 20 23 26 26 27 28
2 1 2 9 15 11 5 6 5 5 5 3 3 4 2 2 5 6 7 8 6 5 5 4 5 6 6 4 4 6 7 5 6 6 4 3 1 2 2 4 3 4 3 1 2 3 2 3 3 2 3 2 2 2 2 1 2 4 4 5 6 5 3 2 5 4 5 8 8 7 8 7 2 1 8 12 14 17 17 18 20 20 20 23 24 24 26 28
1 1 1 4 10 8 4 4 5 7 8 7 8 8 4 3 6 7 11 12 7 5 4 3 3 4 4 3 3 4 7 6 4 2 2 3 2 1 1 0 0 2 1 2 3 1 2 3 3 3 6 5 4 2 2 3 4 4 5 6 7 7 7 5 4 5 6 7 7 8 9 9 8 11 14 14 15 18 19 19 20 20 21 24 24 25 25 25
2 2 1 2 4 7 4 1 3 7 8 8 8 9 11 10 5 4 10 11 7 6 5 2 2 3 3 4 4 5 7 6 2 1 2 3 3 1 1 1 0 2 3 2 1 1 0 2 5 8 9 8 7 3 4 4 4 5 6 8 8 9 10 7 4 6 7 5 7 12 12 13 15 15 16 16 17 18 18 21 22 21 23 25 25 25 25 24
2 3 4 4 3 6 6 4 4 6 7 8 6 5 11 13 8 4 7 8 6 7 5 2 5 7 6 7 7 6 7 5 2 3 3 3 3 1 1 2 1 4 5 2 1 1 1 3 6 10 12 9 7 5 1 2 6 8 8 11 10 9 10 9 8 9 7 6 9 12 10 12 15 15 17 18 17 17 19 22 24 23 24 26 25 25 27 26
4 3 4 6 5 6 7 7 8 10 11 9 7 6 8 12 12 9 8 4 2 6 7 5 8 14 14 11 7 5 6 6 6 5 4 3 4 4 3 3 3 4 5 3 1 2 2 3 4 6 9 8 6 7 6 5 8 8 9 14 14 9 10 11 12 14 11 9 13 12 13 16 16 16 18 18 16 17 21 23 24 23 24 25 25 25 27 26
3 1 1 3 5 5 6 8 12 14 16 12 10 10 11 16 18 12 5 4 3 8 12 12 12 16 17 13 10 8 8 8 8 6 5 4 5 6 4 4 4 5 5 4 2 2 2 2 2 3 6 7 7 9 10 8 9 9 11 17 15 11 12 12 12 14 14 16 18 17 18 20 16 14 16 16 16 17 20 21 22 23 23 24 25 25 26 25
5 3 3 1 3 4 2 5 10 12 13 13 12 13 14 20 22 13 6 9 11 8 11 18 17 14 16 15 13 14 14 12 7 5 7 6 5 5 4 3 5 6 6 5 3 2 3 2 2 2 4 6 8 11 10 9 10 9 12 18 16 12 14 14 12 11 12 14 16 15 17 16 10 11 14 15 16 17 19 19 20 20 22 24 25 25 26 26
12 9 9 4 4 7 5 5 9 8 9 11 12 14 17 22 23 16 10 14 17 11 13 21 19 9 9 14 17 17 13 9 4 5 9 8 5 5 4 3 7 8 6 5 4 3 4 2 2 2 4 4 6 8 8 7 8 10 14 19 18 12 11 10 8 8 9 11 13 12 12 10 8 10 14 16 18 18 18 18 17 18 21 23 24 24 24 24
12 7 8 6 6 9 8 6 8 9 10 11 13 16 18 18 17 15 11 10 14 13 13 16 14 7 7 15 19 13 7 7 5 4 5 3 3 3 2 4 7 9 8 6 3 2 4 3 2 2 3 2 5 4 3 3 5 8 11 14 15 11 10 10 8 9 11 11 10 8 8 10 11 13 15 17 19 18 17 16 16 18 20 21 22 23 22 22
Wind_Direction
10 9 8 8 8 8 8 8 8 7 6 5 3 2 3 4 5 6 7 8 10 11 6 1 357 354 354 0 35 119 81 65 58 51 47 19 358 2 3 3 2 359 357 360 6 12 23 11 23 35 143 166 357 24 9 10 351 276 236 261 278 122 74 109 73 29 338 327 327 327 24 329 327 0 339 294 256 260 289 298 272 254 246 251 263 286 305 313
8 7 6 6 6 6 7 7 6 5 5 4 2 0 360 1 2 4 5 6 8 9 6 359 357 357 351 351 204 180 139 66 54 50 31 5 359 3 2 4 2 360 0 2 10 12 14 13 3 353 341 275 354 136 219 18 307 274 239 287 48 86 58 57 50 58 332 323 318 319 351 324 325 354 343 310 310 307 309 341 354 338 338 317 292 304 326 325
6 5 4 4 4 5 5 5 4 3 3 2 1 359 358 359 0 2 1 3 7 7 3 359 1 356 350 3 183 180 176 101 49 37 7 359 0 2 1 7 6 4 5 358 1 9 18 18 349 339 330 311 37 214 249 32 257 292 262 289 68 84 44 110 286 57 331 315 307 310 330 320 340 25 312 304 312 327 3 11 7 356 355 346 340 348 342 332
4 3 3 3 3 3 3 3 2 1 1 0 359 358 358 358 359 360 359 1 5 7 2 1 3 356 4 58 178 171 173 136 45 352 349 357 359 2 3 10 10 9 8 350 344 1 16 14 5 12 328 271 71 212 250 11 337 128 242 320 74 114 339 120 208 327 20 290 294 300 307 313 356 97 277 302 318 355 19 11 8 359 353 343 340 345 346 352
1 1 2 2 2 1 0 0 0 360 359 358 358 357 356 357 358 358 358 359 3 6 3 3 5 5 29 67 160 156 180 190 24 347 351 357 359 2 1 6 6 8 5 354 350 353 9 9 358 29 344 276 293 218 198 50 345 219 220 309 81 164 356 99 132 55 122 277 283 290 307 323 332 294 283 312 331 6 11 7 9 358 348 337 332 345 355 10
359 0 1 2 1 359 359 358 358 359 358 358 357 356 356 357 359 358 356 356 1 6 3 3 8 28 58 76 119 128 179 168 4 349 353 354 356 359 354 355 359 7 5 6 14 0 9 352 320 326 320 248 237 309 47 83 288 277 206 243 152 168 326 93 118 129 222 290 281 295 333 323 306 318 346 317 306 343 3 7 4 353 349 339 345 15 22 27
357 358 360 0 359 357 357 357 357 357 357 357 356 356 355 356 358 357 354 354 359 6 3 1 8 40 73 79 93 77 71 74 352 342 349 348 344 343 347 350 356 4 1 7 10 360 0 333 331 334 273 244 208 326 16 341 239 254 251 300 146 147 181 239 135 191 243 271 279 307 318 296 309 334 339 313 337 0 2 8 5 0 5 14 29 37 37 35
355 356 358 358 358 356 356 357 357 357 357 357 356 355 355 355 357 356 354 354 0 7 1 359 10 12 77 73 89 73 68 13 341 339 339 340 337 336 345 356 4 9 15 22 12 344 330 329 349 226 273 341 159 272 338 285 218 213 277 323 14 136 150 232 256 247 241 263 279 301 297 309 35 309 275 27 40 24 1 19 22 18 27 39 44 43 42 38
353 355 356 357 357 354 355 357 356 356 356 356 356 355 355 355 356 355 355 357 2 4 359 0 8 351 43 54 140 91 44 336 336 339 337 341 342 341 354 13 18 24 30 27 11 340 326 342 1 296 302 354 266 282 273 281 225 202 289 314 306 307 326 248 229 216 205 256 280 302 309 6 89 223 137 72 47 6 354 35 39 39 48 48 48 45 41 37
350 353 355 355 355 353 355 357 356 355 355 355 356 356 355 354 354 355 357 360 360 356 358 13 19 9 67 24 168 92 18 331 344 349 350 355 354 352 10 22 27 36 38 12 5 6 2 330 351 358 298 271 228 266 227 277 14 334 302 307 295 294 306 235 169 144 146 159 240 309 322 347 4 262 98 66 37 360 7 48 51 53 57 51 48 42 38 36
348 350 353 353 352 352 353 355 355 354 354 355 355 356 356 353 352 355 359 360 354 353 6 44 61 65 71 67 81 87 34 346 3 3 1 5 12 14 15 24 34 40 46 4 6 21 6 306 197 159 288 197 186 224 195 288 356 346 318 310 291 266 165 177 136 126 138 123 235 297 318 323 316 20 68 43 21 1 19 62 59 57 56 47 45 40 37 33
345 348 350 351 350 350 351 354 354 353 354 354 353 355 355 351 351 354 358 358 354 1 29 65 91 78 67 67 71 92 131 14 15 10 5 8 20 19 12 23 40 35 38 329 357 8 354 335 202 260 316 343 300 280 143 351 335 338 342 307 299 300 156 149 94 115 139 118 206 270 315 305 300 64 62 38 14 1 36 74 59 54 50 42 41 37 36 29
342 345 349 349 349 348 350 353 353 353 352 352 352 354 354 350 349 352 352 356 1 19 44 49 120 131 59 79 77 110 183 20 20 15 13 13 10 5 5 20 46 40 27 259 1 22 7 93 215 277 346 296 316 359 221 302 294 276 56 269 309 335 172 141 94 71 117 138 187 274 327 314 333 52 66 45 6 9 60 77 55 52 46 39 38 33 35 27
340 343 347 349 348 347 350 352 352 352 352 352 351 351 353 348 345 348 346 352 3 24 38 41 103 128 77 105 160 109 55 31 20 15 17 17 7 346 355 11 47 45 20 307 358 33 39 100 176 166 84 300 308 305 251 229 170 271 262 183 338 348 302 62 80 55 86 147 190 333 325 310 322 13 54 12 6 43 76 77 56 53 46 41 38 31 30 26
339 342 347 348 346 346 349 351 351 351 351 352 349 348 348 342 339 342 339 348 359 17 30 45 97 117 102 111 184 132 61 51 18 10 8 6 4 346 338 348 56 67 50 25 28 73 58 96 161 288 71 241 275 288 268 209 152 299 329 298 22 350 309 340 66 80 56 86 16 355 331 308 309 337 10 3 56 80 84 75 59 56 47 42 37 30 28 23
339 340 346 347 345 346 348 351 351 350 351 351 350 346 344 338 333 332 332 349 358 30 35 41 84 105 134 109 170 145 46 27 11 6 355 352 349 328 332 337 77 68 155 72 75 100 51 60 117 335 315 317 308 316 302 268 196 70 16 331 333 329 313 326 87 98 40 13 34 37 342 302 296 323 338 9 81 92 89 78 65 57 49 43 36 31 27 21
338 339 344 347 345 345 347 350 350 349 350 350 350 348 348 342 331 321 327 350 356 54 47 52 73 11 122 70 160 125 350 318 358 3 347 338 332 324 334 335 80 59 159 114 27 291 6 36 119 297 177 35 345 336 323 313 324 346 357 330 309 309 306 311 303 91 25 357 338 69 172 289 296 318 333 45 92 96 90 81 68 57 49 43 35 30 26 20
337 338 343 346 344 345 347 349 350 349 348 349 350 349 349 347 334 310 329 347 350 68 43 59 46 317 151 346 313 349 308 290 336 2 348 328 325 341 356 350 109 97 202 216 5 4 347 349 186 273 233 21 12 11 345 329 324 313 322 318 305 301 289 295 300 359 10 340 321 340 5 310 306 318 4 75 96 96 88 81 66 54 45 38 32 27 24 19
335 337 342 344 344 346 347 349 351 349 348 350 353 350 345 349 340 255 348 353 9 92 335 31 358 277 272 305 313 331 313 292 309 353 351 331 314 262 23 11 209 208 321 272 6 27 344 312 220 299 346 357 1 5 317 317 315 301 306 298 294 300 286 287 296 339 5 334 329 355 345 323 309 326 49 91 96 91 85 73 58 46 39 33 28 24 19 16
334 336 340 342 343 345 347 349 349 350 352 353 357 357 354 357 351 197 353 355 77 55 326 349 342 250 286 304 321 335 327 306 338 356 353 338 309 197 215 350 254 351 46 311 330 38 323 326 339 331 359 347 335 310 291 303 293 285 295 283 285 296 290 293 300 343 10 338 332 342 338 327 310 337 83 104 93 85 78 64 55 43 37 30 25 22 16 13
334 335 339 341 341 344 347 348 348 354 359 358 7 24 41 6 349 330 340 333 120 53 324 326 309 267 283 304 332 343 344 214 289 341 354 344 299 213 313 2 309 341 37 241 272 218 274 329 11 36 9 342 324 294 279 285 268 272 289 292 295 297 302 301 295 342 6 341 323 328 338 330 314 1 100 107 90 88 76 66 58 42 38 29 22 17 11 8
332 334 337 338 341 344 346 347 348 354 358 4 29 65 90 62 31 262 297 300 311 28 320 309 290 271 288 309 337 341 329 275 271 327 352 346 333 347 348 28 17 331 6 272 273 320 327 344 72 60 58 101 38 259 261 279 275 281 296 296 297 315 324 306 266 7 352 326 316 329 336 317 320 74 104 103 99 101 87 77 62 42 38 28 19 12 5 1
330 333 335 336 341 342 344 347 346 351 3 21 53 78 88 112 155 207 205 290 298 314 9 331 289 280 333 12 10 341 320 324 320 354 350 341 3 14 327 30 33 262 356 340 3 346 311 355 83 96 138 173 197 162 249 285 272 279 310 298 303 341 342 314 309 339 323 289 306 327 321 294 289 103 105 107 114 116 101 79 58 47 41 27 19 12 4 358
329 333 334 336 340 342 343 343 344 360 17 42 67 70 88 169 234 205 177 272 294 309 331 296 298 302 35 42 14 341 326 343 334 353 351 350 50 339 319 51 4 204 156 66 98 242 276 338 74 125 125 215 287 259 258 303 294 289 334 305 319 334 327 307 313 323 314 291 333 336 317 262 152 112 117 127 123 112 86 54 42 39 34 21 13 8 2 358
329 332 335 336 339 344 343 342 358 12 18 48 60 56 92 197 211 159 171 279 269 300 222 191 241 193 128 85 4 352 204 201 305 308 342 1 35 313 344 78 293 246 131 121 172 256 268 351 15 128 95 47 314 305 320 322 301 303 112 24 322 314 313 312 317 327 320 306 54 13 328 258 137 354 146 144 114 94 64 41 36 28 22 12 4 1 357 355
328 333 337 336 339 346 345 345 8 5 14 64 32 22 71 292 178 166 190 297 201 300 126 147 197 174 140 40 31 43 189 175 323 299 328 2 14 293 199 210 321 12 144 169 287 277 254 42 8 89 72 28 340 300 241 144 291 300 86 351 309 305 313 315 319 327 309 300 11 27 309 270 296 292 150 144 117 98 57 36 31 20 16 9 2 0 357 357
329 336 339 337 340 345 348 349 349 360 25 11 337 352 351 314 159 165 237 298 181 126 144 242 332 176 173 27 99 234 280 304 323 322 22 359 351 182 269 269 188 136 143 214 281 235 144 126 76 59 41 346 308 291 68 116 273 294 61 321 306 312 313 312 314 303 287 303 315 229 240 269 295 217 153 146 126 71 32 21 16 12 10 4 2 1 358 359
330 338 340 340 340 345 6 18 349 30 60 299 318 341 75 130 152 165 306 299 201 124 156 208 126 144 245 191 140 257 318 327 301 69 41 2 16 177 258 269 209 167 128 226 269 313 134 150 86 36 352 290 288 322 57 186 230 17 24 288 280 298 301 301 300 289 292 315 301 251 224 262 279 231 169 127 92 17 14 11 7 8 4 359 359 358 359 358
331 337 341 342 340 344 6 2 7 67 8 318 330 22 118 132 159 182 348 271 216 116 116 242 147 41 328 263 163 120 326 314 310 331 358 29 39 46 247 250 163 140 125 238 260 167 69 17 73 196 252 264 120 78 52 131 145 332 310 265 263 282 291 286 279 290 305 294 282 280 221 262 280 278 280 102 86 14 5 4 4 3 358 357 357 356 355 352
330 336 341 342 338 328 331 346 43 56 2 342 21 89 123 141 208 283 259 252 329 94 128 288 265 331 333 284 236 153 184 208 273 336 1 109 37 39 62 300 197 151 125 287 239 214 41 311 242 187 243 329 120 124 80 83 348 288 285 306 310 299 289 277 274 296 300 272 254 193 122 308 293 291 295 115 85 32 5 358 359 358 356 356 354 351 348 343
330 336 339 338 335 321 320 341 49 33 21 12 59 103 140 169 319 237 247 240 79 136 186 236 310 348 13 291 269 267 155 280 313 335 30 112 19 45 106 244 217 189 212 192 194 240 130 174 185 121 78 143 142 171 164 146 276 284 352 347 328 303 274 257 262 242 248 266 191 173 114 334 276 281 104 116 76 41 13 2 359 357 354 352 347 342 340 337
330 335 337 337 336 327 309 216 356 21 31 38 64 121 192 324 250 221 243 93 125 235 165 115 297 31 66 49 254 254 146 243 4 57 75 41 10 42 295 266 218 263 258 180 157 316 173 149 39 341 254 203 183 187 182 176 290 6 31 359 322 305 307 271 271 249 254 259 161 175 347 325 267 273 145 123 58 30 14 8 1 355 349 343 339 334 333 333
329 332 333 333 332 327 288 260 339 30 52 62 87 188 68 294 249 219 202 247 340 36 64 42 356 109 45 306 254 172 156 221 155 83 109 132 242 215 284 282 266 281 274 155 20 273 197 128 240 226 163 202 219 198 211 205 46 35 58 42 287 312 322 295 292 293 278 267 162 174 342 290 267 266 152 121 40 22 13 7 356 349 340 335 334 329 330 330
327 331 328 324 319 303 244 223 177 103 91 94 153 241 112 236 251 107 212 247 315 17 63 81 40 227 221 261 281 174 226 226 106 91 189 170 226 221 218 237 255 293 240 193 258 232 235 240 193 188 162 157 172 118 345 58 68 71 108 173 244 262 282 282 302 308 300 304 271 221 202 253 283 148 147 128 33 20 11 2 347 342 334 331 331 327 329 328
322 325 318 311 298 270 200 190 174 149 156 154 143 197 216 237 244 179 232 253 350 308 111 140 214 281 245 228 276 246 235 239 84 133 218 196 222 221 186 199 218 236 176 195 213 163 246 264 108 86 303 135 128 115 77 133 157 120 115 207 242 217 240 265 306 292 287 301 289 228 204 258 305 122 140 97 18 12 7 356 342 337 332 331 329 328 330 326
312 317 307 292 281 250 185 186 169 153 164 165 182 217 224 238 219 189 185 123 118 141 321 268 214 251 271 231 179 204 209 225 60 222 218 214 236 219 154 152 196 237 236 216 203 173 241 264 102 104 302 45 101 169 179 286 235 139 160 211 96 81 223 268 293 197 243 279 275 253 270 285 284 137 139 30 5 2 357 347 337 333 333 331 329 330 331 327
297 299 282 272 272 222 174 173 159 152 156 168 215 230 227 226 216 196 153 133 132 105 48 295 225 211 274 268 203 181 167 219 208 206 225 221 224 169 157 172 181 220 277 307 256 201 278 254 155 170 160 80 339 176 123 327 312 176 207 128 97 101 125 190 292 322 288 275 271 274 283 290 294 242 153 2 354 351 345 340 335 334 335 331 329 332 331 328
276 277 264 257 246 194 169 165 156 152 135 181 229 244 223 197 212 185 150 139 128 125 155 252 234 199 251 266 236 155 159 197 165 176 240 221 209 151 148 171 182 197 296 327 275 341 330 257 193 181 147 111 143 195 136 122 344 353 317 95 112 186 168 145 152 305 289 282 281 285 287 286 284 292 26 345 344 345 338 337 334 334 334 330 329 330 328 327
231 264 271 233 208 182 172 164 150 140 179 204 229 245 212 208 231 185 171 149 113 138 195 233 232 220 217 227 259 153 177 201 170 181 231 215 220 142 140 161 177 187 219 166 228 291 266 255 220 132 120 124 179 226 197 176 118 65 98 136 121 297 195 175 157 256 267 274 281 293 301 293 242 64 357 335 342 343 335 334 331 330 330 326 327 327 325 326
197 186 250 203 182 171 163 152 136 160 214 213 226 230 184 227 238 202 212 210 149 186 226 225 212 231 237 212 242 225 204 219 202 207 222 218 262 176 156 164 162 159 140 131 251 268 176 241 224 136 141 213 194 196 204 181 153 160 185 175 165 162 162 202 231 184 229 262 268 284 292 282 128 39 345 337 342 338 332 330 326 324 324 323 325 325 323 324
176 230 231 194 174 158 148 139 146 190 211 228 234 229 211 215 196 191 231 249 225 225 245 205 205 234 250 244 243 202 191 229 208 216 233 215 239 227 171 160 155 151 143 156 215 222 186 220 208 165 194 226 208 42 355 262 217 216 212 189 175 166 162 248 251 188 181 242 234 256 275 277 5 356 335 343 334 331 330 326 322 322 323 322 324 324 322 322
172 238 195 173 169 157 148 176 192 167 223 222 215 214 195 183 183 184 180 167 254 258 245 209 215 229 233 238 243 185 185 231 196 201 245 221 223 255 164 145 137 144 152 151 172 214 73 177 225 218 213 219 4 9 337 252 199 197 204 175 167 167 166 222 258 249 243 244 221 238 265 276 121 141 58 356 335 328 328 325 323 324 324 322 321 320 319 321
205 219 159 168 173 164 163 231 193 179 241 228 252 225 186 171 183 180 170 174 204 208 206 217 201 210 221 218 219 190 188 223 196 187 230 232 214 32 151 146 126 137 162 148 143 131 100 152 210 233 215 104 55 31 39 47 137 158 165 168 185 197 177 211 258 277 283 260 237 245 263 264 135 128 21 348 331 323 325 326 325 323 322 321 319 318 322 324
209 172 133 180 186 178 189 220 209 223 228 221 252 232 197 224 204 188 192 197 189 175 195 217 196 211 222 189 196 199 186 205 212 195 196 195 154 68 122 145 143 166 177 172 181 166 173 184 171 235 258 189 154 154 129 144 201 195 197 190 200 203 168 210 250 254 263 245 228 240 262 253 178 21 333 332 324 320 323 324 323 323 321 319 319 321 325 325
174 135 86 185 202 206 223 223 220 238 227 218 236 224 204 232 215 210 219 213 193 174 195 222 197 196 188 161 196 207 195 213 228 202 153 147 148 39 82 163 232 196 229 320 296 232 222 216 180 232 261 251 254 258 152 180 207 205 205 203 209 202 184 192 222 227 243 242 223 231 255 266 284 308 315 320 323 321 322 322 322 322 318 319 324 326 325 321
174 212 151 132 219 230 255 266 218 243 228 216 240 227 207 218 222 217 225 218 197 184 198 216 163 157 157 177 204 212 207 214 211 179 173 151 166 230 179 163 260 269 268 287 294 141 130 243 226 232 245 254 274 308 95 132 214 228 225 224 215 197 194 201 201 215 242 268 256 248 256 272 287 301 310 319 325 323 322 323 323 321 320 323 328 326 319 315
197 216 170 146 212 223 236 246 220 235 228 209 219 210 202 216 223 195 202 210 200 188 201 211 175 186 195 185 201 218 199 187 185 194 187 154 148 143 123 140 187 260 253 228 157 145 151 228 231 233 245 259 286 306 86 150 248 248 250 256 240 197 182 190 205 227 252 282 266 260 271 280 286 301 312 319 324 323 324 326 323 320 322 326 327 321 313 311
196 214 167 168 206 214 215 218 206 221 231 218 218 222 211 216 219 208 193 192 206 190 197 222 204 206 208 185 182 206 180 184 216 203 165 148 150 151 158 180 204 227 227 210 195 196 206 245 230 223 246 260 281 287 272 257 260 250 248 261 257 226 197 197 214 232 241 250 255 271 292 288 289 302 310 317 324 323 324 323 318 317 322 325 321 314 311 315
176 254 223 193 226 223 203 186 184 209 223 219 224 231 224 226 227 219 169 136 224 210 206 225 220 207 208 192 183 203 187 185 213 199 163 163 162 162 174 191 192 187 185 184 197 205 205 241 211 212 254 256 249 261 262 252 251 249 250 258 259 247 237 232 234 238 240 247 255 270 282 281 287 302 306 315 320 318 320 319 315 317 321 321 316 312 314 322
176 192 189 190 257 237 213 179 177 202 217 213 224 229 225 231 232 223 179 188 215 207 200 224 225 202 201 199 197 214 207 190 197 180 158 163 170 178 190 175 155 157 171 178 183 230 229 163 126 175 259 248 227 239 251 245 243 245 254 261 259 253 252 250 244 240 242 252 260 270 277 277 288 306 308 314 315 314 318 319 315 316 318 316 314 316 322 326
198 194 180 169 240 213 203 200 186 203 220 208 219 230 229 234 231 224 219 216 218 209 196 215 219 191 189 205 209 220 213 184 169 157 163 176 182 180 186 162 148 153 171 183 176 209 223 194 113 152 255 243 197 216 244 246 246 247 254 261 257 244 244 244 230 218 227 252 269 274 277 282 302 315 313 313 314 315 319 319 316 316 315 314 317 321 324 324
194 198 185 189 236 216 203 205 192 211 232 215 213 224 230 236 230 221 230 227 219 222 211 205 200 170 182 212 215 213 175 127 105 106 141 150 106 108 143 153 154 155 161 172 177 184 194 194 160 179 256 255 152 173 239 245 257 256 246 248 244 230 234 239 227 219 225 244 266 269 274 290 309 318 316 314 316 320 322 319 316 314 311 312 321 323 320 318